Regional Weather Roundup
Issued by NWS

Home | Current Version | Previous Version | Text Only | Print | Product List | Glossary On
Versions: 1 2 3 4 5 6 7 8 9 10 11 12 13 14 15 16 17 18 19 20 21 22 23 24 25 26 27 28 29 30 31 32 33 34 35 36 37 38 39 40 41 42 43 44 45 46 47 48 49 50
000
ASCA44 KEWX 300620
RWRMX

LATIN AMERICA AND CARIBBEAN REGIONAL WEATHER ROUNDUP
NATIONAL WEATHER SERVICE AUSTIN/SAN ANTONIO TX
100 AM CDT SAT AUG 30 2014

NOTE: "FAIR" INDICATED FEW OR NO CLOUDS BELOW 12,000 FEET WITH NO
SIGNIFICANT WEATHER AND/OR OBSTRUCTIONS TO VISIBILITY.

BAJA CALIFORNIA

CITY           SKY/WX    TMP DP  RH WIND       PRES   REMARKS
LA PAZ           N/A    N/A N/A N/A MISG        N/A
TIJUANA        CLEAR     66  61  82 W5        29.88

NORTHWESTERN MEXICO

CITY           SKY/WX    TMP DP  RH WIND       PRES   REMARKS
CULIACAN         N/A    N/A N/A N/A MISG        N/A

NORTHEASTERN MEXICO

CITY           SKY/WX    TMP DP  RH WIND       PRES   REMARKS
MONTERREY      PTCLDY    81  68  65 E13       29.90S
REYNOSA        MOCLDY    77  73  88 E6        29.87S
CD. VICTORIA   PTCLDY    82  64  54 S9        29.89S

WESTERN MEXICO

CITY           SKY/WX    TMP DP  RH WIND       PRES   REMARKS
DEL BAJIO      PTCLDY    59  57  94 NW6       30.23R
GUADALAJARA    CLOUDY    64  59  82 CALM      30.11S
MAZATLAN       CLOUDY    77  73  88 NE5       29.80R THUNDER
P. VALLARTA    CLOUDY    77  73  88 NE3       29.83S
ZACATECAS      RAIN      63  54  72 N5        30.25

CENTRAL MEXICO

CITY           SKY/WX    TMP DP  RH WIND       PRES   REMARKS
MEXICO CITY    PTCLDY    66  50  55 NW8       30.27R
MORELIA        MOCLDY    63  59  88 W5        30.17S
QUERETARO      PTCLDY    63  55  77 E5        30.24S
TOLUCA         PTCLDY    55  48  76 CALM      30.33R

SOUTHERN MEXICO

CITY           SKY/WX    TMP DP  RH WIND       PRES   REMARKS
ACAPULCO       MOCLDY    81  77  89 E3        29.84F

YUCATAN PENINSULA

CITY           SKY/WX    TMP DP  RH WIND       PRES   REMARKS
CANCUN         PTCLDY    82  73  74 CALM      29.97F
COZUMEL          N/A    N/A N/A N/A MISG        N/A
MERIDA         MOCLDY    77  72  83 E13       29.94S
TAPACHULA      MOCLDY    77  73  88 E7        29.90S
TUX. GUTIERREZ CLOUDY    72  70  94 CALM      29.97S

CENTRAL AMERICA

CITY           SKY/WX    TMP DP  RH WIND       PRES   REMARKS

CARIBBEAN

CITY           SKY/WX    TMP DP  RH WIND       PRES   REMARKS
ARUBA          PTCLDY    82  75  78 E18       29.92F
CURACAO        PTCLDY    82  75  78 E15       29.97S
KINGSTON       TSTM      75  75 100 N5        29.97S
NASSAU         PTCLDY    84  77  79 SE6       30.11  HX  94
SAN JUAN       CLEAR     81  75  83 CALM      30.05F
SANTO DOMINGO  PTCLDY    75  72  88 N6        30.00S
ST. CROIX      CLEAR     77  73  88 N5        30.04F
ST. MAARTEN    PTCLDY    82  75  78 E6        30.00F
ST. THOMAS     CLEAR     79  73  83 E6        30.03

$$



USA.gov is the U.S. government's official web portal to all federal, state and local government web resources and services.